Theta_e
338 341 347 352 352 352 351 350 348 348 347 347 345 345 343 341 342 341 339 340 340 341 342 343 343 344 343 343 345 344 343 342
336 337 345 352 352 352 352 350 349 348 348 348 348 346 346 345 344 342 342 342 341 342 343 345 345 344 343 343 344 344 343 343
335 334 340 351 352 351 351 350 349 348 348 348 348 348 347 347 347 344 343 342 343 344 346 346 344 344 343 341 342 342 343 343
337 333 339 343 349 352 350 350 349 348 348 348 348 348 348 348 348 348 347 344 344 345 346 346 344 343 341 340 340 341 342 343
337 335 338 339 343 344 345 351 350 349 348 348 348 348 348 348 348 348 346 347 346 347 347 346 345 343 341 339 339 340 341 342
335 335 339 339 338 341 342 346 350 350 350 349 348 348 346 342 341 343 345 346 346 348 348 346 346 343 341 339 338 338 340 334
330 336 339 339 338 338 341 341 344 343 343 343 341 341 341 339 336 342 344 347 347 349 349 348 346 342 341 331 330 335 330 332
323 336 340 339 340 339 338 339 343 341 340 340 340 339 340 339 337 338 334 336 340 347 342 343 339 336 332 329 327 325 326 330
316 330 339 339 339 339 338 338 340 340 339 340 340 339 338 336 333 332 333 332 334 335 334 331 331 330 330 329 327 325 325 329
314 316 337 339 339 340 338 339 339 339 339 339 339 338 338 336 333 333 333 330 331 330 330 328 327 329 329 329 328 328 329 331
316 316 325 338 339 340 339 338 339 339 339 338 338 338 337 336 335 335 330 326 328 329 329 331 331 328 328 328 326 325 327 327
316 318 319 332 339 339 339 337 339 339 339 338 337 337 337 337 336 334 330 329 328 328 327 330 328 326 325 325 324 326 325 325
316 319 319 327 334 338 338 335 339 340 340 338 337 337 338 338 336 331 329 328 329 328 327 325 325 324 324 324 323 323 323 325
318 319 317 328 331 334 333 337 339 339 339 335 336 338 339 338 334 331 329 328 328 327 325 325 324 323 321 321 323 323 322 323
316 318 320 333 333 335 335 335 335 333 331 331 333 336 335 335 335 330 330 328 328 326 325 324 323 322 322 321 324 325 321 323
324 326 327 333 334 338 336 334 331 328 327 327 330 334 334 332 333 329 329 328 327 326 324 323 323 323 322 321 318 318 320 324
324 326 331 334 337 337 336 332 330 328 326 327 329 332 334 333 332 331 329 327 327 324 324 323 322 319 319 319 315 317 313 317
325 329 332 335 335 335 334 332 327 327 326 324 324 325 329 332 331 330 328 327 325 325 322 321 320 318 315 315 317 312 307 310
326 329 333 335 335 335 333 330 327 323 321 322 324 325 328 330 329 331 328 327 325 324 322 320 322 319 317 315 317 319 315 314
Wind_Speed
13 14 18 23 22 21 21 21 20 19 19 19 19 19 18 17 16 15 14 13 11 10 10 10 10 10 10 9 8 8 10 8
14 14 17 25 25 24 24 23 23 22 22 21 20 19 19 17 16 16 15 14 12 12 11 11 10 7 7 8 9 10 9 11
18 16 15 23 24 24 24 24 24 24 23 22 20 19 18 17 16 15 15 14 13 13 12 12 11 9 8 8 9 9 11 11
14 15 14 16 20 25 24 23 23 22 22 21 21 19 18 17 16 15 14 13 14 13 12 12 11 11 10 10 11 11 11 13
12 14 14 15 16 16 16 24 24 23 22 21 21 20 18 17 16 15 13 13 14 13 14 13 13 11 11 10 11 12 12 13
7 9 11 13 15 15 14 16 22 23 22 21 20 19 15 7 8 10 12 13 15 14 14 14 13 11 11 12 11 12 14 3
15 12 12 13 13 13 11 12 14 12 11 12 12 11 9 8 6 9 10 16 16 16 16 15 14 13 12 3 3 9 3 5
17 11 17 15 15 13 12 9 7 7 7 8 11 10 9 7 6 5 4 4 5 14 6 9 6 5 5 4 4 4 5 5
9 15 16 17 15 15 9 9 9 9 8 8 10 11 8 6 6 5 4 5 4 4 5 5 3 4 5 5 5 6 6 6
8 8 16 17 16 14 13 9 10 11 10 10 9 10 9 8 7 6 6 4 4 4 4 4 4 4 5 6 5 6 5 7
11 10 10 16 17 15 16 14 12 11 11 10 9 10 13 8 7 7 5 5 4 5 5 6 6 5 5 4 5 6 6 5
11 10 12 16 15 16 19 15 11 10 10 10 9 11 13 10 10 9 5 5 5 5 5 3 3 4 4 3 6 5 4 5
9 10 11 9 14 15 14 11 10 10 9 9 8 8 12 12 10 6 5 4 5 4 4 4 4 4 4 4 3 4 4 4
11 11 8 9 12 14 9 9 10 10 8 6 6 7 11 10 8 6 5 5 5 4 4 4 4 3 3 3 4 4 4 4
8 8 4 6 7 7 7 5 4 5 5 6 7 6 10 8 8 6 5 5 5 4 4 3 5 4 3 3 3 3 4 4
7 9 10 11 9 9 8 6 5 5 4 4 5 10 8 6 6 7 5 5 5 6 6 6 3 5 3 3 2 2 2 4
9 7 8 7 11 7 5 4 4 5 2 4 5 7 11 11 8 7 6 5 5 3 5 4 4 2 2 4 3 2 2 2
10 10 8 9 9 8 8 7 5 5 4 3 2 3 4 7 7 7 7 5 5 4 3 4 4 5 4 3 4 4 1 3
8 7 9 10 8 8 10 8 10 5 4 3 3 3 4 6 6 6 6 5 5 3 4 4 4 3 3 3 1 4 2 3
Wind_Direction
155 167 174 173 175 177 177 174 172 172 175 178 179 180 179 179 182 179 186 192 199 207 214 224 236 244 247 247 252 252 241 239
170 178 178 179 179 181 181 179 177 178 182 185 186 187 185 184 186 186 190 196 205 211 223 231 242 238 247 252 258 261 247 246
169 181 185 184 184 186 185 184 183 182 186 188 191 191 190 190 191 194 198 202 209 217 221 235 239 236 237 245 257 261 253 235
175 175 183 186 193 189 189 189 190 189 189 191 193 195 193 195 194 202 204 210 216 221 230 232 239 236 237 242 250 254 256 239
179 183 178 186 193 196 193 193 193 191 195 196 199 194 197 199 199 202 208 216 222 224 232 227 236 241 239 243 250 251 248 242
189 185 183 186 195 200 197 197 197 197 194 198 203 200 194 196 197 201 211 219 229 228 229 228 234 239 246 251 250 251 250 238
205 193 187 188 197 197 198 194 197 197 197 196 201 202 193 187 183 196 209 230 231 230 227 227 231 235 250 234 246 256 239 231
207 189 193 189 193 190 200 187 191 191 193 196 197 190 191 185 194 200 199 221 227 228 220 227 232 226 226 228 232 233 242 224
217 192 193 194 190 192 190 188 191 191 193 197 198 188 184 185 187 204 202 210 201 194 193 193 210 227 241 234 231 232 233 229
236 197 191 188 189 191 191 187 192 195 194 196 194 190 186 191 188 198 208 191 192 177 181 201 213 213 225 229 242 242 241 217
237 243 176 189 191 184 193 190 191 192 193 188 191 194 191 189 185 199 190 186 191 183 189 208 211 207 214 203 237 246 243 240
228 224 184 191 186 188 196 195 188 189 180 186 187 187 186 182 196 193 181 182 185 183 175 181 194 179 190 211 237 249 259 253
221 212 209 176 182 192 195 187 185 182 178 181 180 176 179 191 194 170 160 172 180 166 169 178 180 201 220 210 234 252 262 278
215 202 209 193 182 189 177 177 178 169 172 160 162 167 176 184 166 155 161 185 170 166 173 179 197 200 222 231 227 248 258 259
203 219 188 202 158 150 138 123 113 120 126 144 160 161 163 164 162 161 171 172 152 146 176 192 217 225 197 209 232 245 257 250
191 184 173 161 164 145 154 140 126 142 129 117 139 145 154 162 193 200 192 166 166 174 193 211 224 207 215 210 95 297 274 258
172 180 166 164 155 149 131 117 117 125 119 135 154 166 169 174 185 176 171 181 177 180 218 215 182 166 209 173 157 147 229 300
174 179 162 149 142 124 116 106 82 71 65 82 97 122 185 168 165 160 172 167 184 190 202 186 182 171 182 214 204 144 120 229
174 141 133 131 126 124 122 113 132 138 146 192 161 140 146 150 150 157 154 163 175 175 181 192 187 174 151 189 190 236 113 150